Regional Weather Roundup
Issued by NWS Cleveland, OH

Home | Current Version | Previous Version | Text Only | Print | Product List | Glossary Off
Versions: 1 2 3 4 5 6 7 8 9 10 11 12 13 14 15 16 17 18 19 20 21 22 23 24 25 26 27 28 29 30 31 32 33 34 35 36 37 38 39 40 41 42 43 44 45 46 47 48 49 50

000
ASUS41 KCLE 210410
RWRCLE
OHIO REGIONAL WEATHER ROUNDUP
NATIONAL WEATHER SERVICE WILMINGTON, OH
1200 AM EDT SUN SEP 21 2014

NOTE: "FAIR" INDICATES FEW OR NO CLOUDS BELOW 12,000 FEET WITH NO
SIGNIFICANT WEATHER AND/OR OBSTRUCTIONS TO VISIBILITY.

OHZ001>008-015>018-024>027-034-035-043-044-210500-
   NORTHWEST OHIO

CITY           SKY/WX    TMP DP  RH WIND       PRES   REMARKS
DEFIANCE       LGT RAIN N/A N/A N/A SW8       29.84S
FINDLAY        MOCLDY    65  61  87 S8        29.86S
TOLEDO EXPRESS PTCLDY    64  62  93 SW9       29.83S
TOLEDO METCALF MOCLDY    65  61  87 SW13      29.84S
LIMA           CLOUDY    65  62  90 S8        29.88F
$$

OHZ009>014-019>023-028>033-038-089-210500-
   NORTHEAST OHIO

CITY           SKY/WX    TMP DP  RH WIND       PRES   REMARKS
CLE-HOPKINS    LGT RAIN  69  62  78 S13G21    29.87F
CLE-LAKEFRONT  LGT RAIN  73  61  65 S17G25    29.83F
CUY CO. ARPT   NOT AVBL
LORAIN-ELYRIA  LGT RAIN  69  61  75 S13       29.84F
ASHTABULA      MOCLDY    69  62  78 S12       29.87F
AKRON-CANTON   CLOUDY    70  61  73 S5        29.92F
WOOSTER        CLOUDY    68  62  81 S7        29.91F
MANSFIELD      CLOUDY    65  62  90 S10       29.90F
YOUNGSTOWN     MOCLDY    69  61  75 S8        29.91F
$$

OHZ042-051>053-060>062-070>072-077>081-210500-
  SOUTHWEST OHIO

CITY           SKY/WX    TMP DP  RH WIND       PRES   REMARKS
CINC-COVINGTON CLOUDY    71  64  78 S9        29.94F
CINC-LUNKEN    MOCLDY    69  65  86 S9        29.93F
HAMILTON       MOCLDY    69  65  86 CALM      29.93F
DAYTON         CLOUDY    73  65  75 SW13      29.93S
WRIGHT-PAT AFB CLOUDY    71  65  79 S9        29.91F
DAYTON GENERAL MOCLDY    72  65  78 S8        29.93R
WILMINGTON     MOCLDY    68  62  81 S9        29.94F
$$

OHZ036-037-039>041-045>050-054>059-063>069-073>076-082>088-210500-
  CENTRAL AND SOUTHEAST OHIO

CITY           SKY/WX    TMP DP  RH WIND       PRES   REMARKS
COLUMBUS       CLOUDY    75  62  64 SW8       29.93S
OSU AIRPORT    CLOUDY    73  63  70 SW7       29.92F
BOLTON FIELD   CLOUDY    69  64  84 SW3       29.94R
RICKENBACK AFB CLOUDY    69  63  80 S9        29.92S
NEWARK         CLOUDY    69  62  78 SW5       29.92F
MARION         CLOUDY    66  61  84 S7        29.90F
LANCASTER      CLOUDY    70  62  76 S5        29.94F
ZANESVILLE     PTCLDY    70  61  73 S8        29.93F
NEW PHILLY     PTCLDY    68  62  81 SE5       29.93F
$$



USA.gov is the U.S. government's official web portal to all federal, state and local government web resources and services.